This is the latest recevied weather packets stored in our database for station/object HB9TVK-13. If no packets are shown the sender has not sent any weather packets the latest 10 day(s).
| Time | Temp. | Humidity | Pressure | Rain* | Wind** | Luminosity | Snow |
|---|---|---|---|---|---|---|---|
| 1777547836 | 14.44° C | 48% | 1022.8 hPa | 0 mm | - | - | - |
| 1777547236 | 13.89° C | 47% | 1022.7 hPa | 0 mm | - | - | - |
| 1777546636 | 14.44° C | 47% | 1022.8 hPa | 0 mm | - | - | - |
| 1777546037 | 14.44° C | 46% | 1022.9 hPa | 0 mm | - | - | - |
| 1777545437 | 13.89° C | 48% | 1022.9 hPa | 0 mm | - | - | - |
| 1777544837 | 13.33° C | 49% | 1022.9 hPa | 0 mm | - | - | - |
| 1777544237 | 13.33° C | 50% | 1022.7 hPa | 0 mm | - | - | - |
| 1777543636 | 12.78° C | 52% | 1022.7 hPa | 0 mm | - | - | - |
| 1777543036 | 12.22° C | 52% | 1022.9 hPa | 0 mm | - | - | - |
| 1777542436 | 12.22° C | 53% | 1023 hPa | 0 mm | - | - | - |
| 1777541837 | 12.22° C | 54% | 1023.1 hPa | 0 mm | - | - | - |
| 1777541237 | 11.67° C | 54% | 1023.2 hPa | 0 mm | - | - | - |
| 1777540638 | 11.11° C | 55% | 1023.2 hPa | 0 mm | - | - | - |
| 1777540036 | 10.56° C | 56% | 1023.3 hPa | 0 mm | - | - | - |
| 1777539436 | 10.56° C | 56% | 1023.2 hPa | 0 mm | - | - | - |
| 1777538836 | 10° C | 57% | 1023.1 hPa | 0 mm | - | - | - |
| 1777538236 | 9.44° C | 58% | 1023.1 hPa | 0 mm | - | - | - |
| 1777537637 | 8.89° C | 58% | 1023.1 hPa | 0 mm | - | - | - |
| 1777537037 | 8.89° C | 58% | 1023.1 hPa | 0 mm | - | - | - |
| 1777536438 | 8.33° C | 59% | 1023.2 hPa | 0 mm | - | - | - |
| 1777535835 | 7.78° C | 59% | 1023 hPa | 0 mm | - | - | - |
| 1777535236 | 7.78° C | 60% | 1023.1 hPa | 0 mm | - | - | - |
| 1777534636 | 7.78° C | 59% | 1023.2 hPa | 0 mm | - | - | - |
| 1777534036 | 7.78° C | 60% | 1023 hPa | 0 mm | - | - | - |
| 1777533437 | 7.22° C | 60% | 1022.9 hPa | 0 mm | - | - | - |
* Rain latest hour (hover to see other rain measurements)
** Current wind speed in m/s (hover to see current wind gust speed)